Date,TemperatureHighF,TemperatureAvgF,TemperatureLowF,DewpointHighF,DewpointAvgF,DewpointLowF,HumidityHigh,HumidityAvg,HumidityLow,PressureMaxIn,PressureMinIn,WindSpeedMaxMPH,WindSpeedAvgMPH,GustSpeedMaxMPH,PrecipitationSumIn
2013-2-1,37.9,26.5,18.3,23.4,6.5,-8.0,76,44,18,30.47,30.21,13,3,19,0.00
2013-2-2,33.6,28.2,21.4,28.7,14.9,1.9,82,59,30,30.47,30.24,8,2,16,0.00
2013-2-3,42.8,34.5,28.8,30.5,22.9,14.3,82,64,33,30.27,30.15,11,2,18,0.00
2013-2-4,47.3,35.8,26.8,19.6,17.1,15.2,66,48,29,30.27,30.15,5,1,11,0.00
2013-2-5,57.0,45.7,39.4,37.5,28.2,17.6,73,52,29,30.21,30.12,7,1,11,0.00
2013-2-6,59.5,45.8,36.7,36.0,24.1,-0.1,80,50,10,30.36,30.21,4,0,11,0.00
2013-2-7,50.5,46.7,43.7,41.4,29.9,16.2,87,56,30,30.30,30.12,7,1,15,0.04
2013-2-8,49.6,43.1,34.3,47.7,37.2,25.4,96,81,48,30.36,30.09,7,2,14,0.11
2013-2-9,54.9,39.3,28.2,28.0,23.4,16.7,78,56,29,30.45,30.36,9,2,13,0.00
2013-2-10,53.4,46.2,42.8,47.3,21.8,-2.1,96,46,10,30.39,30.21,12,4,25,0.67
2013-2-11,52.0,48.6,41.7,50.9,47.1,38.6,97,94,88,30.30,30.18,12,3,18,0.20
2013-2-12,46.9,41.3,37.0,37.4,27.1,20.6,88,59,39,30.30,30.03,12,2,15,0.12
2013-2-13,43.9,39.8,34.3,41.7,36.7,29.5,95,89,80,30.15,29.85,15,3,17,0.08
2013-2-14,52.9,39.4,34.0,31.9,28.5,22.9,87,68,32,30.24,30.15,7,1,10,0.00
2013-2-15,53.6,40.8,34.5,34.7,29.3,26.0,80,65,36,30.27,30.18,7,2,14,0.04
2013-2-16,34.3,29.2,23.0,27.7,15.0,3.3,80,58,30,30.24,30.15,11,2,19,0.00
2013-2-17,42.4,27.1,18.7,8.4,2.3,-13.6,57,38,10,30.39,30.24,12,2,15,0.00
2013-2-18,58.5,40.1,30.0,14.6,7.6,-2.3,38,28,10,30.45,30.18,10,4,20,0.00
2013-2-19,51.4,41.6,31.8,42.5,13.9,-12.7,92,43,10,30.33,30.12,12,6,18,0.24
2013-2-20,37.2,31.6,27.3,11.5,4.7,-13.0,50,34,11,30.36,30.30,5,1,13,0.00
2013-2-21,52.7,39.3,25.5,35.8,14.7,-2.3,84,43,10,30.33,30.12,5,1,12,0.71
2013-2-22,48.4,43.7,39.4,43.2,38.9,36.6,95,83,70,30.24,30.15,10,4,26,0.28
2013-2-23,51.8,46.4,42.8,50.7,44.4,40.4,96,93,88,30.18,30.03,5,1,9,0.31
2013-2-24,57.9,41.8,33.4,39.5,28.2,19.2,93,64,22,30.21,30.09,6,1,10,0.00
2013-2-25,50.9,42.6,35.1,34.3,22.9,18.2,67,46,29,30.18,29.94,7,3,22,0.00
2013-2-26,50.4,43.8,36.5,48.4,38.7,27.9,96,83,61,29.97,29.65,11,6,21,0.63
2013-2-27,53.4,39.2,34.0,33.0,28.5,22.4,87,69,33,30.03,29.91,9,4,14,0.00
2013-2-28,36.1,32.5,30.9,24.2,19.4,17.2,72,58,53,30.15,30.00,10,4,17,0.00